KUIPER-00458

导读

KUIPER-00458(NORAD编号68950)是亚马逊柯伊伯(Kuiper)卫星互联网计划的低轨通信卫星,属于柯伊伯系统批量部署的卫星之一。该项目计划发射数千颗近地轨道卫星,旨在为全球提供高速低延迟宽带互联网服务,弥补地面网络覆盖不足。卫星运行在近地轨道,采用V/Ku频段,支持移动回传等应用,与SpaceX星链竞争全球卫星互联网市场,目前该卫星处于在轨运行状态,是柯伊伯星座组网部署的组成部分。

Basic Information
目录编号:
68950
目录名称:
KUIPER-00458
国际标识:
2026-098AH
轨道中心:
EARTH
卫星名称:
KUIPER-00458
卫星全名:
KUIPER-00458
卫星状态:
在轨 (已飞行128 天)
发射日期:
2026-04-30 UTC
国别 :
美国 (US)
星等 :
--
Orbit Information
数据来源 国际轨道数据 AOE轨道数据
星历时间 2026-09-05T12:29:28+0800
6小时前
查看轨道信息
2026-09-04T11:00:00+0800
1天前
查看轨道信息
半长轴 7007.697km 7007.683km
偏心率 0.0000549 0.0000366
轨道倾角 51.901° 51.901°
近地点辐角 98.576° 110.595°
升交点赤经 54.422° 59.118°
平近点角 261.527° 347.345°
近地点 629.175km 629.289km
远地点 629.945km 629.803km
周期 97.302分钟 97.302分钟
每日圈数 14.799253 14.7993
Detailed Information
使用方式:
暂无
2D Orbit Map
3D Orbit Map
Orbit Altitude Analysis Chart
Orbit Inclination Analysis Chart
Orbit Comprehensive Analysis Chart
View Comprehensive Chart
Conjunction Data List
Event ID Objects TCA Miss Dist (km) Collision Risk Probability Collision Risk Index (CRI) Action
CDM_260907-125205-765406-895021
2026-09-07T
12:52:47+0000
1.696 km
极远距离
4.196462E-6 低风险 0.47